Observations for Trim Patrick St
| Time | AQI | Temp °C | Hum % | Pres Pa | CO μg/m³ | H₂S μg/m³ | NO μg/m³ | NO₂ μg/m³ | O₃ μg/m³ | SO₂ μg/m³ | PM1 μg/m³ | PM2.5 μg/m³ | PM10 μg/m³ |
|---|---|---|---|---|---|---|---|---|---|---|---|---|---|
| Thursday 27 August 2026 | |||||||||||||
| 04:09 | 2 | 16.2 | 88 | 38,288 | 0.24 | 1.01 | 1.38 | 21.48 | 36.38 | 0 | 20 | 25.14 | 27.66 |
| 04:08 | 2 | 16.2 | 89 | 38,288 | 0.24 | 0.87 | 1.57 | 18.56 | 32.21 | 0 | 20.86 | 27.14 | 29.85 |
| 04:07 | 2 | 16.2 | 89 | 38,288 | 0.24 | 0.77 | 1.56 | 17.89 | 31.78 | 0 | 21.72 | 27.84 | 30.63 |
| 04:06 | 2 | 16.2 | 88 | 38,288 | 0.22 | 1.34 | 1.66 | 22.56 | 32.99 | 0 | 20.86 | 25.83 | 28.41 |
| 04:04 | 2 | 16.2 | 89 | 38,288 | 0.23 | 1.45 | 1.1 | 18.24 | 27.13 | 0 | 20.86 | 27.82 | 28.64 |
| 04:02 | 2 | 16.2 | 89 | 38,288 | 0.24 | 0.56 | 1.06 | 16.64 | 35.18 | 0 | 20.86 | 26.43 | 29.07 |
| 04:01 | 2 | 16.2 | 89 | 38,288 | 0.23 | 1.16 | 1.06 | 18.94 | 27.45 | 0 | 20.86 | 27.79 | 28.58 |
| 04:00 | 2 | 16.2 | 89 | 38,288 | 0.24 | 1.37 | 1.35 | 20.62 | 26.12 | 0 | 20.86 | 26.44 | 29.09 |
| 03:59 | 2 | 16.2 | 89 | 38,288 | 0.22 | 1.71 | 1.52 | 22.62 | 36.95 | 0 | 20 | 25.1 | 27.61 |
| 03:58 | 2 | 16.1 | 89 | 38,288 | 0.24 | 0.95 | 1.48 | 16.02 | 32.1 | 0 | 20 | 25.8 | 28.38 |
| 03:57 | 2 | 16.1 | 88 | 38,288 | 0.23 | 1.63 | 1.8 | 25.09 | 40.39 | 0 | 20.86 | 27.89 | 30.06 |
| 03:56 | 2 | 16.1 | 89 | 38,288 | 0.22 | 1.66 | 1.62 | 17.85 | 31.77 | 0 | 20.86 | 27.79 | 27.95 |
| 03:55 | 2 | 16.1 | 89 | 38,288 | 0.24 | 2.28 | 1.71 | 22.78 | 37.01 | 0 | 20.86 | 28.53 | 31.38 |
| 03:54 | 2 | 16.1 | 87 | 38,288 | 0.23 | 2.28 | 1.78 | 26.69 | 37.3 | 0 | 21.72 | 27.34 | 30.07 |
| 03:53 | 2 | 16.1 | 88 | 38,288 | 0.25 | 2.34 | 1.75 | 25.39 | 34.15 | 0 | 20 | 25.81 | 28.39 |
| 03:52 | 2 | 16.1 | 88 | 38,288 | 0.23 | 2.44 | 1.56 | 22.73 | 35.28 | 0 | 20 | 25.84 | 28.42 |
| 03:51 | 2 | 16.1 | 89 | 38,288 | 0.23 | 0.77 | 1.71 | 20.75 | 35.51 | 0 | 21.72 | 27.84 | 30.63 |
| 03:50 | 2 | 16.1 | 89 | 38,288 | 0.23 | 0.64 | 1.55 | 18.46 | 26.63 | 0 | 20 | 25.75 | 28.32 |
| 03:49 | 2 | 16.1 | 89 | 38,288 | 0.23 | 2.21 | 1.55 | 22 | 30.31 | 0 | 20.86 | 26.44 | 29.09 |
| 03:48 | 2 | 16.1 | 89 | 38,288 | 0.23 | 2.44 | 1.39 | 22.84 | 30.29 | 0 | 20 | 25.76 | 28.34 |